Location: *
(38.9555°S, 57.3572°E)
Time: 01:53:25
(UTC+00:00)

Cosmos 158 Rocket - Pass Details

Date: 15 July 2020
Orbit: 698 x 794 km, 74.0° (Epoch: 06 August)

Event Time Altitude Azimuth Distance (km) Brightness Sun altitude
Rises 15:12:17 0° 200° (SSW) 3,213 7.4 -23.8°
Reaches altitude 10° 15:14:41 10° 201° (SSW) 2,268 6.6 -24.2°
Maximum altitude 15:19:48 81° 286° (WNW) 743 3.9 -25.2°
Enters shadow 15:22:49 24° 11° (NNE) 1,456 5.4 -25.8°
